Time,TemperatureF,DewpointF,PressureIn,WindDirection,WindDirectionDegrees,WindSpeedMPH,WindSpeedGustMPH,Humidity,HourlyPrecipIn,Conditions,Clouds,dailyrainin,SoftwareType,DateUTC
2013-04-22 00:02:00,39.8,30.8,30.51,WSW,240,0.0,0.0,70,0.00,,,0.00,Wunderground v.1.15,2013-04-22 04:02:00,
2013-04-22 00:03:00,39.7,30.7,30.51,WSW,240,0.0,0.0,70,0.00,,,0.00,Wunderground v.1.15,2013-04-22 04:03:00,
2013-04-22 00:05:00,39.8,31.2,30.51,WSW,240,0.0,0.0,71,0.00,,,0.00,Wunderground v.1.15,2013-04-22 04:05:00,
2013-04-22 00:10:00,39.8,31.2,30.51,WSW,239,0.0,0.0,71,0.00,,,0.00,Wunderground v.1.15,2013-04-22 04:10:00,
2013-04-22 00:16:00,39.7,31.4,30.51,WSW,239,0.0,0.0,72,0.00,,,0.00,Wunderground v.1.15,2013-04-22 04:16:00,
2013-04-22 00:21:00,39.6,31.0,30.52,WSW,240,0.0,0.0,71,0.00,,,0.00,Wunderground v.1.15,2013-04-22 04:21:00,
2013-04-22 00:26:00,39.4,30.8,30.52,WSW,239,0.0,0.0,71,0.00,,,0.00,Wunderground v.1.15,2013-04-22 04:26:00,
2013-04-22 00:31:00,39.2,30.9,30.52,WSW,239,0.0,0.0,72,0.00,,,0.00,Wunderground v.1.15,2013-04-22 04:31:00,
2013-04-22 00:36:00,39.0,30.7,30.52,WSW,239,0.0,0.0,72,0.00,,,0.00,Wunderground v.1.15,2013-04-22 04:36:00,
2013-04-22 00:41:00,38.8,30.9,30.52,WSW,239,0.0,0.0,73,0.00,,,0.00,Wunderground v.1.15,2013-04-22 04:41:00,
2013-04-22 00:46:00,38.7,30.8,30.52,WSW,239,0.0,0.0,73,0.00,,,0.00,Wunderground v.1.15,2013-04-22 04:46:00,
2013-04-22 00:51:00,38.6,31.0,30.52,WSW,239,0.0,0.0,74,0.00,,,0.00,Wunderground v.1.15,2013-04-22 04:51:00,
2013-04-22 00:56:00,38.4,30.8,30.52,WSW,239,0.0,0.0,74,0.00,,,0.00,Wunderground v.1.15,2013-04-22 04:56:00,
2013-04-22 01:01:00,38.2,30.6,30.52,WSW,240,0.0,0.0,74,0.00,,,0.00,Wunderground v.1.15,2013-04-22 05:01:00,
2013-04-22 01:06:00,38.0,30.8,30.52,WSW,239,0.0,0.0,75,0.00,,,0.00,Wunderground v.1.15,2013-04-22 05:06:00,
2013-04-22 01:12:00,37.6,30.4,30.52,WSW,239,0.0,0.0,75,0.00,,,0.00,Wunderground v.1.15,2013-04-22 05:12:00,
2013-04-22 01:17:00,37.3,30.4,30.52,WSW,239,0.0,0.0,76,0.00,,,0.00,Wunderground v.1.15,2013-04-22 05:17:00,
2013-04-22 01:22:00,36.9,30.0,30.52,WSW,239,0.0,0.0,76,0.00,,,0.00,Wunderground v.1.15,2013-04-22 05:22:00,
2013-04-22 01:27:00,36.6,30.1,30.52,WSW,239,0.0,0.0,77,0.00,,,0.00,Wunderground v.1.15,2013-04-22 05:27:00,
2013-04-22 01:32:00,36.5,30.3,30.52,WSW,239,0.0,0.0,78,0.00,,,0.00,Wunderground v.1.15,2013-04-22 05:32:00,
2013-04-22 01:37:00,36.2,30.0,30.52,WSW,239,0.0,0.0,78,0.00,,,0.00,Wunderground v.1.15,2013-04-22 05:37:00,
2013-04-22 01:42:00,36.2,30.6,30.52,WSW,239,0.0,0.0,80,0.00,,,0.00,Wunderground v.1.15,2013-04-22 05:42:00,
2013-04-22 01:47:00,36.0,30.4,30.52,WSW,238,0.0,0.0,80,0.00,,,0.00,Wunderground v.1.15,2013-04-22 05:47:00,
2013-04-22 01:52:00,35.9,30.3,30.52,WSW,238,0.0,0.0,80,0.00,,,0.00,Wunderground v.1.15,2013-04-22 05:52:00,
2013-04-22 01:58:00,35.7,30.4,30.52,WSW,239,0.0,0.0,81,0.00,,,0.00,Wunderground v.1.15,2013-04-22 05:58:00,
2013-04-22 02:03:00,35.7,30.4,30.52,WSW,239,0.0,0.0,81,0.00,,,0.00,Wunderground v.1.15,2013-04-22 06:03:00,
2013-04-22 02:08:00,35.7,30.7,30.52,WSW,239,0.0,0.0,82,0.00,,,0.00,Wunderground v.1.15,2013-04-22 06:08:00,
2013-04-22 02:13:00,35.5,30.5,30.52,WSW,239,0.0,0.0,82,0.00,,,0.00,Wunderground v.1.15,2013-04-22 06:13:00,
2013-04-22 02:18:00,35.3,30.7,30.52,WSW,239,0.0,0.0,83,0.00,,,0.00,Wunderground v.1.15,2013-04-22 06:18:00,
2013-04-22 02:23:00,35.0,30.4,30.52,WSW,239,0.0,0.0,83,0.00,,,0.00,Wunderground v.1.15,2013-04-22 06:23:00,
2013-04-22 02:28:00,34.9,30.8,30.52,WSW,239,0.0,0.0,85,0.00,,,0.00,Wunderground v.1.15,2013-04-22 06:28:00,
2013-04-22 02:33:00,34.8,30.8,30.52,WSW,239,0.0,0.0,85,0.00,,,0.00,Wunderground v.1.15,2013-04-22 06:33:00,
2013-04-22 02:38:00,34.7,30.9,30.52,WSW,239,0.0,0.0,86,0.00,,,0.00,Wunderground v.1.15,2013-04-22 06:38:00,
2013-04-22 02:43:00,34.7,30.9,30.51,WSW,239,0.0,0.0,86,0.00,,,0.00,Wunderground v.1.15,2013-04-22 06:43:00,
2013-04-22 02:48:00,34.8,31.0,30.51,WSW,239,0.0,0.0,86,0.00,,,0.00,Wunderground v.1.15,2013-04-22 06:48:00,
2013-04-22 02:53:00,34.5,30.7,30.51,WSW,239,0.0,0.0,86,0.00,,,0.00,Wunderground v.1.15,2013-04-22 06:53:00,
2013-04-22 02:58:00,34.3,30.5,30.51,WSW,239,0.0,0.0,86,0.00,,,0.00,Wunderground v.1.15,2013-04-22 06:58:00,
2013-04-22 03:03:00,34.3,30.8,30.51,WSW,239,0.0,0.0,87,0.00,,,0.00,Wunderground v.1.15,2013-04-22 07:03:00,
2013-04-22 03:08:00,34.0,30.5,30.51,WSW,238,0.0,0.0,87,0.00,,,0.00,Wunderground v.1.15,2013-04-22 07:08:00,
2013-04-22 03:13:00,33.8,30.3,30.51,WSW,238,0.0,0.0,87,0.00,,,0.00,Wunderground v.1.15,2013-04-22 07:13:00,
2013-04-22 03:18:00,33.5,30.3,30.51,WSW,239,0.0,0.0,88,0.00,,,0.00,Wunderground v.1.15,2013-04-22 07:18:00,
2013-04-22 03:23:00,33.8,30.9,30.51,WSW,239,0.0,0.0,89,0.00,,,0.00,Wunderground v.1.15,2013-04-22 07:23:00,
2013-04-22 03:29:00,33.9,31.0,30.51,WSW,239,0.0,0.0,89,0.00,,,0.00,Wunderground v.1.15,2013-04-22 07:29:00,
2013-04-22 03:34:00,33.8,30.9,30.51,WSW,239,0.0,0.0,89,0.00,,,0.00,Wunderground v.1.15,2013-04-22 07:34:00,
2013-04-22 03:39:00,33.6,31.0,30.51,WSW,239,0.0,0.0,90,0.00,,,0.00,Wunderground v.1.15,2013-04-22 07:39:00,
2013-04-22 03:44:00,33.6,31.0,30.51,NNW,335,0.0,1.0,90,0.00,,,0.00,Wunderground v.1.15,2013-04-22 07:44:00,
2013-04-22 03:49:00,33.5,30.9,30.51,NNW,336,0.0,1.0,90,0.00,,,0.00,Wunderground v.1.15,2013-04-22 07:49:00,
2013-04-22 03:54:00,33.4,30.8,30.51,NNW,335,0.0,0.0,90,0.00,,,0.00,Wunderground v.1.15,2013-04-22 07:54:00,
2013-04-22 03:59:00,33.4,30.8,30.51,NNW,335,0.0,0.0,90,0.00,,,0.00,Wunderground v.1.15,2013-04-22 07:59:00,
2013-04-22 04:04:00,33.3,30.7,30.51,NNW,336,0.0,0.0,90,0.00,,,0.00,Wunderground v.1.15,2013-04-22 08:04:00,
2013-04-22 04:09:00,33.1,30.5,30.51,NNW,335,0.0,0.0,90,0.00,,,0.00,Wunderground v.1.15,2013-04-22 08:09:00,
2013-04-22 04:14:00,32.9,30.6,30.52,NNW,335,0.0,0.0,91,0.00,,,0.00,Wunderground v.1.15,2013-04-22 08:14:00,
2013-04-22 04:20:00,32.8,30.5,30.52,NNW,335,0.0,0.0,91,0.00,,,0.00,Wunderground v.1.15,2013-04-22 08:20:00,
2013-04-22 04:25:00,32.8,30.5,30.52,NNW,336,0.0,0.0,91,0.00,,,0.00,Wunderground v.1.15,2013-04-22 08:25:00,
2013-04-22 04:30:00,32.7,30.4,30.52,NNW,336,0.0,0.0,91,0.00,,,0.00,Wunderground v.1.15,2013-04-22 08:30:00,
2013-04-22 04:35:00,32.5,30.4,30.52,NNW,335,0.0,0.0,92,0.00,,,0.00,Wunderground v.1.15,2013-04-22 08:35:00,
2013-04-22 04:40:00,32.7,30.6,30.52,NNW,335,0.0,0.0,92,0.00,,,0.00,Wunderground v.1.15,2013-04-22 08:40:00,
2013-04-22 04:45:00,32.7,30.6,30.52,NNW,335,0.0,0.0,92,0.00,,,0.00,Wunderground v.1.15,2013-04-22 08:45:00,
2013-04-22 04:50:00,32.7,30.6,30.52,NNW,335,0.0,0.0,92,0.00,,,0.00,Wunderground v.1.15,2013-04-22 08:50:00,
2013-04-22 04:55:00,32.7,30.6,30.52,NNW,335,0.0,0.0,92,0.00,,,0.00,Wunderground v.1.15,2013-04-22 08:55:00,
2013-04-22 05:00:00,32.5,30.4,30.52,NNW,335,0.0,0.0,92,0.00,,,0.00,Wunderground v.1.15,2013-04-22 09:00:00,
2013-04-22 05:05:00,32.2,30.1,30.52,NNW,335,0.0,0.0,92,0.00,,,0.00,Wunderground v.1.15,2013-04-22 09:05:00,
2013-04-22 05:10:00,31.8,29.7,30.52,NNW,335,0.0,0.0,92,0.00,,,0.00,Wunderground v.1.15,2013-04-22 09:10:00,
2013-04-22 05:16:00,32.0,30.2,30.52,NNW,335,0.0,0.0,93,0.00,,,0.00,Wunderground v.1.15,2013-04-22 09:16:00,
2013-04-22 05:21:00,31.8,30.0,30.52,NNW,335,0.0,0.0,93,0.00,,,0.00,Wunderground v.1.15,2013-04-22 09:21:00,
2013-04-22 05:26:00,31.8,30.0,30.52,NNW,336,0.0,1.0,93,0.00,,,0.00,Wunderground v.1.15,2013-04-22 09:26:00,
2013-04-22 05:31:00,31.8,30.0,30.52,NNW,335,0.0,0.0,93,0.00,,,0.00,Wunderground v.1.15,2013-04-22 09:31:00,
2013-04-22 05:36:00,31.6,29.8,30.52,NNW,336,0.0,0.0,93,0.00,,,0.00,Wunderground v.1.15,2013-04-22 09:36:00,
2013-04-22 05:41:00,31.7,30.2,30.52,North,1,0.0,0.0,94,0.00,,,0.00,Wunderground v.1.15,2013-04-22 09:41:00,
2013-04-22 05:46:00,31.7,30.2,30.52,North,1,0.0,1.0,94,0.00,,,0.00,Wunderground v.1.15,2013-04-22 09:46:00,
2013-04-22 05:51:00,31.7,30.2,30.52,North,1,0.0,0.0,94,0.00,,,0.00,Wunderground v.1.15,2013-04-22 09:51:00,
2013-04-22 05:56:00,31.6,29.8,30.52,North,1,0.0,0.0,93,0.00,,,0.00,Wunderground v.1.15,2013-04-22 09:56:00,
2013-04-22 06:02:00,31.6,30.1,30.52,North,1,0.0,0.0,94,0.00,,,0.00,Wunderground v.1.15,2013-04-22 10:02:00,
2013-04-22 06:07:00,31.6,30.1,30.52,North,1,0.0,0.0,94,0.00,,,0.00,Wunderground v.1.15,2013-04-22 10:07:00,
2013-04-22 06:12:00,31.6,30.1,30.52,North,1,0.0,0.0,94,0.00,,,0.00,Wunderground v.1.15,2013-04-22 10:12:00,
2013-04-22 06:17:00,31.5,30.0,30.52,North,1,0.0,0.0,94,0.00,,,0.00,Wunderground v.1.15,2013-04-22 10:17:00,
2013-04-22 06:22:00,31.6,30.1,30.52,North,1,0.0,0.0,94,0.00,,,0.00,Wunderground v.1.15,2013-04-22 10:22:00,
2013-04-22 06:27:00,31.6,30.1,30.52,North,1,0.0,0.0,94,0.00,,,0.00,Wunderground v.1.15,2013-04-22 10:27:00,
2013-04-22 06:32:00,32.1,30.8,30.52,North,1,0.0,0.0,95,0.00,,,0.00,Wunderground v.1.15,2013-04-22 10:32:00,
2013-04-22 06:37:00,32.8,31.5,30.52,North,1,0.0,0.0,95,0.00,,,0.00,Wunderground v.1.15,2013-04-22 10:37:00,
2013-04-22 06:42:00,33.6,32.3,30.51,North,1,0.0,0.0,95,0.00,,,0.00,Wunderground v.1.15,2013-04-22 10:42:00,
2013-04-22 06:47:00,33.7,31.9,30.52,North,1,0.0,1.0,93,0.00,,,0.00,Wunderground v.1.15,2013-04-22 10:47:00,
2013-04-22 06:52:00,34.3,32.8,30.51,North,1,1.0,1.0,94,0.00,,,0.00,Wunderground v.1.15,2013-04-22 10:52:00,
2013-04-22 06:57:00,35.5,33.7,30.51,North,1,0.0,1.0,93,0.00,,,0.00,Wunderground v.1.15,2013-04-22 10:57:00,
2013-04-22 07:02:00,36.4,34.3,30.51,NE,40,2.0,2.0,92,0.00,,,0.00,Wunderground v.1.15,2013-04-22 11:02:00,
2013-04-22 07:07:00,37.3,34.6,30.51,ENE,61,0.0,2.0,90,0.00,,,0.00,Wunderground v.1.15,2013-04-22 11:07:00,
2013-04-22 07:13:00,38.3,35.1,30.51,SE,124,1.0,2.0,88,0.00,,,0.00,Wunderground v.1.15,2013-04-22 11:13:00,
2013-04-22 07:18:00,39.8,34.8,30.51,ENE,72,2.0,13.0,82,0.00,,,0.00,Wunderground v.1.15,2013-04-22 11:18:00,
2013-04-22 07:23:00,41.5,34.2,30.51,ESE,117,5.0,9.0,75,0.00,,,0.00,Wunderground v.1.15,2013-04-22 11:23:00,
2013-04-22 07:28:00,42.7,33.6,30.51,ESE,111,7.0,12.0,70,0.00,,,0.00,Wunderground v.1.15,2013-04-22 11:28:00,
2013-04-22 07:33:00,43.3,33.1,30.52,ESE,120,7.0,10.0,67,0.00,,,0.00,Wunderground v.1.15,2013-04-22 11:33:00,
2013-04-22 07:38:00,43.6,32.6,30.51,East,85,3.0,10.0,65,0.00,,,0.00,Wunderground v.1.15,2013-04-22 11:38:00,
2013-04-22 07:43:00,44.0,33.0,30.51,ENE,65,9.0,9.0,65,0.00,,,0.00,Wunderground v.1.15,2013-04-22 11:43:00,
2013-04-22 07:48:00,44.4,33.4,30.51,SE,127,2.0,10.0,65,0.00,,,0.00,Wunderground v.1.15,2013-04-22 11:48:00,
2013-04-22 07:53:00,44.6,32.8,30.51,SSE,164,4.0,12.0,63,0.00,,,0.00,Wunderground v.1.15,2013-04-22 11:53:00,
2013-04-22 07:58:00,44.7,32.5,30.51,SSE,150,4.0,12.0,62,0.00,,,0.00,Wunderground v.1.15,2013-04-22 11:58:00,
2013-04-22 08:03:00,45.0,33.2,30.51,ESE,105,4.0,11.0,63,0.00,,,0.00,Wunderground v.1.15,2013-04-22 12:03:00,
2013-04-22 08:08:00,45.0,31.9,30.51,ESE,117,9.0,14.0,60,0.00,,,0.00,Wunderground v.1.15,2013-04-22 12:08:00,
2013-04-22 08:13:00,45.1,32.4,30.51,SSE,155,4.0,8.0,61,0.00,,,0.00,Wunderground v.1.15,2013-04-22 12:13:00,
2013-04-22 08:18:00,45.4,32.7,30.52,East,86,5.0,10.0,61,0.00,,,0.00,Wunderground v.1.15,2013-04-22 12:18:00,
2013-04-22 08:23:00,45.5,32.4,30.52,SE,142,4.0,12.0,60,0.00,,,0.00,Wunderground v.1.15,2013-04-22 12:23:00,
2013-04-22 08:28:00,45.9,31.9,30.52,South,172,4.0,12.0,58,0.00,,,0.00,Wunderground v.1.15,2013-04-22 12:28:00,
2013-04-22 08:33:00,45.8,32.3,30.52,ESE,120,5.0,13.0,59,0.00,,,0.00,Wunderground v.1.15,2013-04-22 12:33:00,
2013-04-22 08:38:00,45.7,32.2,30.52,ENE,77,8.0,17.0,59,0.00,,,0.00,Wunderground v.1.15,2013-04-22 12:38:00,
2013-04-22 08:43:00,46.0,32.9,30.53,ESE,116,7.0,8.0,60,0.00,,,0.00,Wunderground v.1.15,2013-04-22 12:43:00,
2013-04-22 08:48:00,46.3,32.7,30.53,ESE,112,4.0,12.0,59,0.00,,,0.00,Wunderground v.1.15,2013-04-22 12:48:00,
2013-04-22 08:53:00,46.5,32.9,30.54,South,172,4.0,13.0,59,0.00,,,0.00,Wunderground v.1.15,2013-04-22 12:53:00,
2013-04-22 08:58:00,46.5,32.9,30.54,ENE,71,3.0,13.0,59,0.00,,,0.00,Wunderground v.1.15,2013-04-22 12:58:00,
2013-04-22 09:03:00,46.7,33.1,30.54,SSE,153,5.0,12.0,59,0.00,,,0.00,Wunderground v.1.15,2013-04-22 13:03:00,
2013-04-22 09:08:00,46.8,32.8,30.54,ESE,108,13.0,16.0,58,0.00,,,0.00,Wunderground v.1.15,2013-04-22 13:08:00,
2013-04-22 09:13:00,46.7,32.7,30.54,SSE,163,4.0,13.0,58,0.00,,,0.00,Wunderground v.1.15,2013-04-22 13:13:00,
2013-04-22 09:18:00,46.7,33.1,30.54,ESE,108,7.0,13.0,59,0.00,,,0.00,Wunderground v.1.15,2013-04-22 13:18:00,
2013-04-22 09:23:00,46.3,32.7,30.53,SSE,155,7.0,14.0,59,0.00,,,0.00,Wunderground v.1.15,2013-04-22 13:23:00,
2013-04-22 09:28:00,46.4,32.8,30.53,SE,125,5.0,15.0,59,0.00,,,0.00,Wunderground v.1.15,2013-04-22 13:28:00,
2013-04-22 09:34:00,46.7,32.7,30.53,ENE,61,10.0,14.0,58,0.00,,,0.00,Wunderground v.1.15,2013-04-22 13:34:00,
2013-04-22 09:39:00,46.6,33.0,30.53,ESE,102,4.0,14.0,59,0.00,,,0.00,Wunderground v.1.15,2013-04-22 13:39:00,
2013-04-22 09:44:00,47.3,32.8,30.53,SE,124,3.0,9.0,57,0.00,,,0.00,Wunderground v.1.15,2013-04-22 13:44:00,
2013-04-22 09:49:00,47.5,33.4,30.52,SE,124,5.0,15.0,58,0.00,,,0.00,Wunderground v.1.15,2013-04-22 13:49:00,
2013-04-22 09:54:00,47.5,33.9,30.52,ESE,109,15.0,18.0,59,0.00,,,0.00,Wunderground v.1.15,2013-04-22 13:54:00,
2013-04-22 09:59:00,47.7,32.8,30.52,SE,139,6.0,18.0,56,0.00,,,0.00,Wunderground v.1.15,2013-04-22 13:59:00,
2013-04-22 10:04:00,47.6,33.1,30.53,ESE,105,7.0,14.0,57,0.00,,,0.00,Wunderground v.1.15,2013-04-22 14:04:00,
2013-04-22 10:09:00,47.8,33.7,30.53,SE,134,3.0,14.0,58,0.00,,,0.00,Wunderground v.1.15,2013-04-22 14:09:00,
2013-04-22 10:14:00,47.7,33.6,30.53,SE,129,7.0,12.0,58,0.00,,,0.00,Wunderground v.1.15,2013-04-22 14:14:00,
2013-04-22 10:19:00,47.7,33.2,30.53,SE,145,6.0,13.0,57,0.00,,,0.00,Wunderground v.1.15,2013-04-22 14:19:00,
2013-04-22 10:24:00,47.8,32.9,30.53,SE,139,7.0,14.0,56,0.00,,,0.00,Wunderground v.1.15,2013-04-22 14:24:00,
2013-04-22 10:29:00,47.9,33.4,30.53,SSE,155,4.0,15.0,57,0.00,,,0.00,Wunderground v.1.15,2013-04-22 14:29:00,
2013-04-22 10:34:00,48.6,33.6,30.53,ESE,120,13.0,13.0,56,0.00,,,0.00,Wunderground v.1.15,2013-04-22 14:34:00,
2013-04-22 10:39:00,48.9,33.9,30.53,SE,135,5.0,14.0,56,0.00,,,0.00,Wunderground v.1.15,2013-04-22 14:39:00,
2013-04-22 10:44:00,48.7,32.8,30.53,South,169,10.0,11.0,54,0.00,,,0.00,Wunderground v.1.15,2013-04-22 14:44:00,
2013-04-22 10:49:00,48.5,33.1,30.53,SW,221,8.0,14.0,55,0.00,,,0.00,Wunderground v.1.15,2013-04-22 14:49:00,
2013-04-22 10:54:00,48.9,34.3,30.52,ESE,115,7.0,13.0,57,0.00,,,0.00,Wunderground v.1.15,2013-04-22 14:54:00,
2013-04-22 10:59:00,49.2,34.6,30.52,SE,138,4.0,15.0,57,0.00,,,0.00,Wunderground v.1.15,2013-04-22 14:59:00,
2013-04-22 11:04:00,49.5,35.3,30.52,SE,128,5.0,11.0,58,0.00,,,0.00,Wunderground v.1.15,2013-04-22 15:04:00,
2013-04-22 11:09:00,49.9,34.8,30.52,SE,127,4.0,17.0,56,0.00,,,0.00,Wunderground v.1.15,2013-04-22 15:09:00,
2013-04-22 11:14:00,50.1,35.9,30.52,SSW,200,4.0,13.0,58,0.00,,,0.00,Wunderground v.1.15,2013-04-22 15:14:00,
2013-04-22 11:19:00,50.2,34.6,30.52,ESE,105,6.0,13.0,55,0.00,,,0.00,Wunderground v.1.15,2013-04-22 15:19:00,
2013-04-22 11:24:00,50.3,35.6,30.52,SSE,167,15.0,16.0,57,0.00,,,0.00,Wunderground v.1.15,2013-04-22 15:24:00,
2013-04-22 11:29:00,50.3,36.1,30.52,East,92,7.0,16.0,58,0.00,,,0.00,Wunderground v.1.15,2013-04-22 15:29:00,
2013-04-22 11:35:00,49.9,35.3,30.51,South,174,4.0,13.0,57,0.00,,,0.00,Wunderground v.1.15,2013-04-22 15:35:00,
2013-04-22 11:40:00,50.1,35.9,30.51,ESE,120,10.0,13.0,58,0.00,,,0.00,Wunderground v.1.15,2013-04-22 15:40:00,
2013-04-22 11:45:00,50.3,35.6,30.52,SSE,158,6.0,13.0,57,0.00,,,0.00,Wunderground v.1.15,2013-04-22 15:45:00,
2013-04-22 11:50:00,49.9,36.1,30.52,SSE,160,7.0,18.0,59,0.00,,,0.00,Wunderground v.1.15,2013-04-22 15:50:00,
2013-04-22 11:55:00,49.8,36.0,30.52,SSW,193,4.0,12.0,59,0.00,,,0.00,Wunderground v.1.15,2013-04-22 15:55:00,
2013-04-22 12:00:00,49.7,35.5,30.51,SE,140,4.0,16.0,58,0.00,,,0.00,Wunderground v.1.15,2013-04-22 16:00:00,
2013-04-22 12:05:00,49.6,35.4,30.51,SE,143,7.0,14.0,58,0.00,,,0.00,Wunderground v.1.15,2013-04-22 16:05:00,
2013-04-22 12:10:00,50.0,36.2,30.50,ESE,117,5.0,18.0,59,0.00,,,0.00,Wunderground v.1.15,2013-04-22 16:10:00,
2013-04-22 12:15:00,49.9,35.7,30.51,ESE,118,3.0,15.0,58,0.00,,,0.00,Wunderground v.1.15,2013-04-22 16:15:00,
2013-04-22 12:20:00,50.4,36.2,30.50,ENE,77,8.0,15.0,58,0.00,,,0.00,Wunderground v.1.15,2013-04-22 16:20:00,
2013-04-22 12:25:00,50.0,35.4,30.50,South,180,7.0,12.0,57,0.00,,,0.00,Wunderground v.1.15,2013-04-22 16:25:00,
2013-04-22 12:30:00,50.1,35.4,30.51,South,176,9.0,22.0,57,0.00,,,0.00,Wunderground v.1.15,2013-04-22 16:30:00,
2013-04-22 12:35:00,50.3,36.1,30.51,ESE,110,4.0,13.0,58,0.00,,,0.00,Wunderground v.1.15,2013-04-22 16:35:00,
2013-04-22 12:40:00,49.9,36.6,30.51,South,187,16.0,16.0,60,0.00,,,0.00,Wunderground v.1.15,2013-04-22 16:40:00,
2013-04-22 12:46:00,49.9,36.6,30.50,East,82,2.0,18.0,60,0.00,,,0.00,Wunderground v.1.15,2013-04-22 16:46:00,
2013-04-22 12:51:00,50.3,36.9,30.49,ESE,114,9.0,9.0,60,0.00,,,0.00,Wunderground v.1.15,2013-04-22 16:51:00,
2013-04-22 12:56:00,50.5,36.7,30.49,SSE,167,3.0,12.0,59,0.00,,,0.00,Wunderground v.1.15,2013-04-22 16:56:00,
2013-04-22 13:01:00,50.1,36.7,30.49,South,172,18.0,18.0,60,0.00,,,0.00,Wunderground v.1.15,2013-04-22 17:01:00,
2013-04-22 13:06:00,50.2,37.3,30.49,East,101,7.0,18.0,61,0.00,,,0.00,Wunderground v.1.15,2013-04-22 17:06:00,
2013-04-22 13:11:00,50.4,37.0,30.49,SSE,153,6.0,10.0,60,0.00,,,0.00,Wunderground v.1.15,2013-04-22 17:11:00,
2013-04-22 13:16:00,50.6,38.1,30.49,East,82,7.0,19.0,62,0.00,,,0.00,Wunderground v.1.15,2013-04-22 17:16:00,
2013-04-22 13:21:00,50.5,36.7,30.49,SE,124,8.0,11.0,59,0.00,,,0.00,Wunderground v.1.15,2013-04-22 17:21:00,
2013-04-22 13:26:00,50.5,36.7,30.49,SSE,161,3.0,18.0,59,0.00,,,0.00,Wunderground v.1.15,2013-04-22 17:26:00,
2013-04-22 13:31:00,50.5,37.1,30.49,East,98,4.0,7.0,60,0.00,,,0.00,Wunderground v.1.15,2013-04-22 17:31:00,
2013-04-22 13:36:00,50.8,37.0,30.48,ENE,78,7.0,11.0,59,0.00,,,0.00,Wunderground v.1.15,2013-04-22 17:36:00,
2013-04-22 13:41:00,50.8,37.4,30.48,ESE,110,6.0,6.0,60,0.00,,,0.00,Wunderground v.1.15,2013-04-22 17:41:00,
2013-04-22 13:46:00,50.5,36.7,30.48,ESE,117,9.0,11.0,59,0.00,,,0.00,Wunderground v.1.15,2013-04-22 17:46:00,
2013-04-22 13:51:00,50.6,37.2,30.48,East,94,7.0,9.0,60,0.00,,,0.00,Wunderground v.1.15,2013-04-22 17:51:00,
2013-04-22 13:56:00,51.0,37.2,30.48,SE,131,5.0,14.0,59,0.00,,,0.00,Wunderground v.1.15,2013-04-22 17:56:00,
2013-04-22 14:01:00,50.7,36.9,30.47,SSE,147,9.0,12.0,59,0.00,,,0.00,Wunderground v.1.15,2013-04-22 18:01:00,
2013-04-22 14:07:00,50.9,37.5,30.47,SSE,165,5.0,12.0,60,0.00,,,0.00,Wunderground v.1.15,2013-04-22 18:07:00,
2013-04-22 14:12:00,50.8,36.5,30.47,SSE,155,4.0,13.0,58,0.00,,,0.00,Wunderground v.1.15,2013-04-22 18:12:00,
2013-04-22 14:17:00,50.8,37.4,30.47,South,177,9.0,13.0,60,0.00,,,0.00,Wunderground v.1.15,2013-04-22 18:17:00,
2013-04-22 14:22:00,51.0,37.2,30.47,ESE,110,7.0,9.0,59,0.00,,,0.00,Wunderground v.1.15,2013-04-22 18:22:00,
2013-04-22 14:27:00,50.9,37.1,30.47,South,190,8.0,10.0,59,0.00,,,0.00,Wunderground v.1.15,2013-04-22 18:27:00,
2013-04-22 14:32:00,50.2,36.8,30.47,SE,143,6.0,12.0,60,0.00,,,0.00,Wunderground v.1.15,2013-04-22 18:32:00,
2013-04-22 14:37:00,50.2,37.3,30.47,SE,127,5.0,17.0,61,0.00,,,0.00,Wunderground v.1.15,2013-04-22 18:37:00,
2013-04-22 14:42:00,50.7,37.3,30.47,ENE,72,3.0,12.0,60,0.00,,,0.00,Wunderground v.1.15,2013-04-22 18:42:00,
2013-04-22 14:47:00,50.5,36.7,30.46,East,89,6.0,17.0,59,0.00,,,0.00,Wunderground v.1.15,2013-04-22 18:47:00,
2013-04-22 14:52:00,50.3,36.9,30.46,SE,125,3.0,11.0,60,0.00,,,0.00,Wunderground v.1.15,2013-04-22 18:52:00,
2013-04-22 14:58:00,50.4,37.0,30.46,SW,222,3.0,12.0,60,0.00,,,0.00,Wunderground v.1.15,2013-04-22 18:58:00,
2013-04-22 15:03:00,50.7,37.3,30.46,SSE,152,5.0,10.0,60,0.00,,,0.00,Wunderground v.1.15,2013-04-22 19:03:00,
2013-04-22 15:08:00,50.2,36.8,30.46,ESE,110,8.0,15.0,60,0.00,,,0.00,Wunderground v.1.15,2013-04-22 19:08:00,
2013-04-22 15:13:00,49.9,37.0,30.46,SSE,158,6.0,14.0,61,0.00,,,0.00,Wunderground v.1.15,2013-04-22 19:13:00,
2013-04-22 15:18:00,50.0,37.1,30.46,ESE,115,7.0,14.0,61,0.00,,,0.00,Wunderground v.1.15,2013-04-22 19:18:00,
2013-04-22 15:23:00,50.2,37.3,30.46,ESE,113,9.0,9.0,61,0.00,,,0.00,Wunderground v.1.15,2013-04-22 19:23:00,
2013-04-22 15:28:00,50.1,36.3,30.45,ESE,110,10.0,15.0,59,0.00,,,0.00,Wunderground v.1.15,2013-04-22 19:28:00,
2013-04-22 15:33:00,50.8,37.4,30.45,ESE,114,8.0,11.0,60,0.00,,,0.00,Wunderground v.1.15,2013-04-22 19:33:00,
2013-04-22 15:38:00,51.0,36.7,30.44,ESE,103,11.0,18.0,58,0.00,,,0.00,Wunderground v.1.15,2013-04-22 19:38:00,
2013-04-22 15:43:00,50.9,35.7,30.44,ESE,118,11.0,16.0,56,0.00,,,0.00,Wunderground v.1.15,2013-04-22 19:43:00,
2013-04-22 15:48:00,50.2,35.1,30.44,SSE,148,8.0,16.0,56,0.00,,,0.00,Wunderground v.1.15,2013-04-22 19:48:00,
2013-04-22 15:53:00,50.1,34.5,30.44,SSE,151,8.0,16.0,55,0.00,,,0.00,Wunderground v.1.15,2013-04-22 19:53:00,
2013-04-22 15:58:00,50.0,34.0,30.43,ESE,111,5.0,16.0,54,0.00,,,0.00,Wunderground v.1.15,2013-04-22 19:58:00,
2013-04-22 16:03:00,50.2,33.2,30.44,SSW,198,7.0,20.0,52,0.00,,,0.00,Wunderground v.1.15,2013-04-22 20:03:00,
2013-04-22 16:09:00,50.8,34.3,30.44,SE,133,8.0,20.0,53,0.00,,,0.00,Wunderground v.1.15,2013-04-22 20:09:00,
2013-04-22 16:14:00,50.9,33.4,30.43,ENE,57,6.0,12.0,51,0.00,,,0.00,Wunderground v.1.15,2013-04-22 20:14:00,
2013-04-22 16:19:00,51.0,33.0,30.43,SSE,166,6.0,17.0,50,0.00,,,0.00,Wunderground v.1.15,2013-04-22 20:19:00,
2013-04-22 16:24:00,51.1,33.1,30.43,SSE,166,4.0,13.0,50,0.00,,,0.00,Wunderground v.1.15,2013-04-22 20:24:00,
2013-04-22 16:29:00,51.0,33.5,30.43,SE,131,7.0,18.0,51,0.00,,,0.00,Wunderground v.1.15,2013-04-22 20:29:00,
2013-04-22 16:34:00,51.1,33.1,30.43,SE,139,9.0,11.0,50,0.00,,,0.00,Wunderground v.1.15,2013-04-22 20:34:00,
2013-04-22 16:39:00,50.9,32.9,30.43,SSE,164,11.0,15.0,50,0.00,,,0.00,Wunderground v.1.15,2013-04-22 20:39:00,
2013-04-22 16:44:00,50.6,33.1,30.42,SE,128,9.0,15.0,51,0.00,,,0.00,Wunderground v.1.15,2013-04-22 20:44:00,
2013-04-22 16:49:00,50.9,32.4,30.42,SSW,205,11.0,15.0,49,0.00,,,0.00,Wunderground v.1.15,2013-04-22 20:49:00,
2013-04-22 16:54:00,51.2,31.6,30.42,South,172,2.0,14.0,47,0.00,,,0.00,Wunderground v.1.15,2013-04-22 20:54:00,
2013-04-22 17:00:00,51.0,32.0,30.42,SE,124,3.0,15.0,48,0.00,,,0.00,Wunderground v.1.15,2013-04-22 21:00:00,
2013-04-22 17:05:00,51.0,32.0,30.42,SSE,160,5.0,16.0,48,0.00,,,0.00,Wunderground v.1.15,2013-04-22 21:05:00,
2013-04-22 17:09:00,51.0,32.0,30.42,SSW,200,3.0,16.0,48,0.00,,,0.00,Wunderground v.1.15,2013-04-22 21:09:00,
2013-04-22 17:14:00,50.9,31.9,30.42,SE,132,5.0,12.0,48,0.00,,,0.00,Wunderground v.1.15,2013-04-22 21:14:00,
2013-04-22 17:19:00,50.7,31.7,30.41,SE,144,4.0,14.0,48,0.00,,,0.00,Wunderground v.1.15,2013-04-22 21:19:00,
2013-04-22 17:24:00,50.8,32.3,30.42,SE,127,3.0,11.0,49,0.00,,,0.00,Wunderground v.1.15,2013-04-22 21:24:00,
2013-04-22 17:29:00,51.0,32.5,30.41,SSW,198,3.0,11.0,49,0.00,,,0.00,Wunderground v.1.15,2013-04-22 21:29:00,
2013-04-22 17:34:00,50.8,32.8,30.41,SW,221,3.0,13.0,50,0.00,,,0.00,Wunderground v.1.15,2013-04-22 21:34:00,
2013-04-22 17:40:00,51.0,33.0,30.42,ESE,105,4.0,13.0,50,0.00,,,0.00,Wunderground v.1.15,2013-04-22 21:40:00,
2013-04-22 17:45:00,50.7,32.2,30.41,East,89,7.0,15.0,49,0.00,,,0.00,Wunderground v.1.15,2013-04-22 21:45:00,
2013-04-22 17:50:00,50.2,31.8,30.41,SE,139,9.0,17.0,49,0.00,,,0.00,Wunderground v.1.15,2013-04-22 21:50:00,
2013-04-22 17:55:00,49.9,31.5,30.42,SE,134,7.0,17.0,49,0.00,,,0.00,Wunderground v.1.15,2013-04-22 21:55:00,
2013-04-22 18:00:00,49.7,31.8,30.42,SSE,153,5.0,8.0,50,0.00,,,0.00,Wunderground v.1.15,2013-04-22 22:00:00,
2013-04-22 18:05:00,49.5,31.6,30.41,ESE,113,6.0,20.0,50,0.00,,,0.00,Wunderground v.1.15,2013-04-22 22:05:00,
2013-04-22 18:10:00,49.5,32.1,30.41,SE,142,7.0,8.0,51,0.00,,,0.00,Wunderground v.1.15,2013-04-22 22:10:00,
2013-04-22 18:15:00,49.5,32.6,30.41,NW,318,1.0,13.0,52,0.00,,,0.00,Wunderground v.1.15,2013-04-22 22:15:00,
2013-04-22 18:20:00,49.5,32.6,30.41,ESE,108,7.0,7.0,52,0.00,,,0.00,Wunderground v.1.15,2013-04-22 22:20:00,
2013-04-22 18:25:00,49.2,32.8,30.41,ESE,120,5.0,18.0,53,0.00,,,0.00,Wunderground v.1.15,2013-04-22 22:25:00,
2013-04-22 18:31:00,49.0,33.1,30.41,SSE,150,4.0,7.0,54,0.00,,,0.00,Wunderground v.1.15,2013-04-22 22:31:00,
2013-04-22 18:36:00,48.9,33.4,30.40,East,101,7.0,8.0,55,0.00,,,0.00,Wunderground v.1.15,2013-04-22 22:36:00,
2013-04-22 18:41:00,48.5,33.5,30.40,SW,236,7.0,11.0,56,0.00,,,0.00,Wunderground v.1.15,2013-04-22 22:41:00,
2013-04-22 18:46:00,48.3,33.8,30.40,SSE,160,4.0,14.0,57,0.00,,,0.00,Wunderground v.1.15,2013-04-22 22:46:00,
2013-04-22 18:51:00,48.1,34.0,30.40,SSE,162,5.0,9.0,58,0.00,,,0.00,Wunderground v.1.15,2013-04-22 22:51:00,
2013-04-22 18:56:00,47.9,33.8,30.40,ESE,121,10.0,13.0,58,0.00,,,0.00,Wunderground v.1.15,2013-04-22 22:56:00,
2013-04-22 19:01:00,47.8,34.2,30.40,SE,124,4.0,8.0,59,0.00,,,0.00,Wunderground v.1.15,2013-04-22 23:01:00,
2013-04-22 19:06:00,47.7,34.5,30.40,SE,124,9.0,11.0,60,0.00,,,0.00,Wunderground v.1.15,2013-04-22 23:06:00,
2013-04-22 19:11:00,47.6,34.8,30.39,ENE,71,2.0,9.0,61,0.00,,,0.00,Wunderground v.1.15,2013-04-22 23:11:00,
2013-04-22 19:17:00,47.5,35.1,30.39,SSE,158,6.0,9.0,62,0.00,,,0.00,Wunderground v.1.15,2013-04-22 23:17:00,
2013-04-22 19:22:00,47.3,35.3,30.39,SSW,210,5.0,6.0,63,0.00,,,0.00,Wunderground v.1.15,2013-04-22 23:22:00,
2013-04-22 19:27:00,47.2,35.2,30.39,SE,127,4.0,13.0,63,0.00,,,0.00,Wunderground v.1.15,2013-04-22 23:27:00,
2013-04-22 19:32:00,47.0,35.8,30.39,East,89,3.0,7.0,65,0.00,,,0.00,Wunderground v.1.15,2013-04-22 23:32:00,
2013-04-22 19:37:00,46.8,36.0,30.39,East,101,2.0,9.0,66,0.00,,,0.00,Wunderground v.1.15,2013-04-22 23:37:00,
2013-04-22 19:42:00,46.6,36.6,30.39,ESE,122,3.0,9.0,68,0.00,,,0.00,Wunderground v.1.15,2013-04-22 23:42:00,
2013-04-22 19:47:00,46.4,36.8,30.39,SE,134,13.0,13.0,69,0.00,,,0.00,Wunderground v.1.15,2013-04-22 23:47:00,
2013-04-22 19:52:00,46.3,37.0,30.40,East,87,6.0,13.0,70,0.00,,,0.00,Wunderground v.1.15,2013-04-22 23:52:00,
2013-04-22 19:57:00,46.1,36.9,30.40,ESE,103,6.0,13.0,70,0.00,,,0.00,Wunderground v.1.15,2013-04-22 23:57:00,
2013-04-22 20:03:00,46.0,37.1,30.39,SSE,154,2.0,10.0,71,0.00,,,0.00,Wunderground v.1.15,2013-04-23 00:03:00,
2013-04-22 20:08:00,45.9,37.4,30.39,SE,139,11.0,11.0,72,0.00,,,0.00,Wunderground v.1.15,2013-04-23 00:08:00,
2013-04-22 20:13:00,45.8,37.6,30.39,SE,134,6.0,7.0,73,0.00,,,0.00,Wunderground v.1.15,2013-04-23 00:13:00,
2013-04-22 20:18:00,45.6,38.1,30.39,ESE,106,4.0,7.0,75,0.00,,,0.00,Wunderground v.1.15,2013-04-23 00:18:00,
2013-04-22 20:23:00,45.6,38.5,30.39,ESE,116,3.0,10.0,76,0.00,,,0.00,Wunderground v.1.15,2013-04-23 00:23:00,
2013-04-22 20:28:00,45.6,38.5,30.39,SSE,150,5.0,10.0,76,0.00,,,0.00,Wunderground v.1.15,2013-04-23 00:28:00,
2013-04-22 20:33:00,45.6,38.8,30.39,SSE,158,5.0,17.0,77,0.00,,,0.00,Wunderground v.1.15,2013-04-23 00:33:00,
2013-04-22 20:39:00,45.6,38.8,30.39,SSE,152,3.0,17.0,77,0.00,,,0.00,Wunderground v.1.15,2013-04-23 00:39:00,
2013-04-22 20:44:00,45.7,39.2,30.39,SE,134,4.0,12.0,78,0.00,,,0.00,Wunderground v.1.15,2013-04-23 00:44:00,
2013-04-22 20:49:00,45.7,39.2,30.39,ENE,74,4.0,12.0,78,0.00,,,0.00,Wunderground v.1.15,2013-04-23 00:49:00,
2013-04-22 20:54:00,45.7,39.2,30.40,East,95,4.0,10.0,78,0.00,,,0.00,Wunderground v.1.15,2013-04-23 00:54:00,
2013-04-22 20:59:00,45.6,39.1,30.39,SSE,152,6.0,10.0,78,0.00,,,0.00,Wunderground v.1.15,2013-04-23 00:59:00,
2013-04-22 21:04:00,45.6,39.1,30.39,East,85,5.0,12.0,78,0.00,,,0.00,Wunderground v.1.15,2013-04-23 01:04:00,
2013-04-22 21:09:00,45.6,39.5,30.39,ENE,72,4.0,12.0,79,0.00,,,0.00,Wunderground v.1.15,2013-04-23 01:09:00,
2013-04-22 21:14:00,45.6,39.5,30.39,East,96,3.0,9.0,79,0.00,,,0.00,Wunderground v.1.15,2013-04-23 01:14:00,
2013-04-22 21:19:00,45.6,39.5,30.39,SE,139,6.0,10.0,79,0.00,,,0.00,Wunderground v.1.15,2013-04-23 01:19:00,
2013-04-22 21:24:00,45.6,39.5,30.39,SE,132,4.0,8.0,79,0.00,,,0.00,Wunderground v.1.15,2013-04-23 01:24:00,
2013-04-22 21:29:00,45.6,39.5,30.40,South,189,4.0,12.0,79,0.00,,,0.00,Wunderground v.1.15,2013-04-23 01:29:00,
2013-04-22 21:34:00,45.6,39.5,30.40,ESE,117,2.0,9.0,79,0.00,,,0.00,Wunderground v.1.15,2013-04-23 01:34:00,
2013-04-22 21:39:00,45.7,39.9,30.40,SSW,193,3.0,12.0,80,0.00,,,0.00,Wunderground v.1.15,2013-04-23 01:39:00,
2013-04-22 21:44:00,45.7,39.6,30.40,ESE,122,3.0,9.0,79,0.00,,,0.00,Wunderground v.1.15,2013-04-23 01:44:00,
2013-04-22 21:49:00,45.7,39.6,30.40,SE,132,11.0,11.0,79,0.00,,,0.00,Wunderground v.1.15,2013-04-23 01:49:00,
2013-04-22 21:54:00,45.7,39.6,30.40,SE,136,3.0,9.0,79,0.00,,,0.00,Wunderground v.1.15,2013-04-23 01:54:00,
2013-04-22 21:59:00,45.7,39.2,30.40,ESE,108,3.0,13.0,78,0.00,,,0.00,Wunderground v.1.15,2013-04-23 01:59:00,
2013-04-22 22:05:00,45.7,39.2,30.39,SSE,155,5.0,10.0,78,0.00,,,0.00,Wunderground v.1.15,2013-04-23 02:05:00,
2013-04-22 22:10:00,45.8,39.0,30.39,SW,214,2.0,10.0,77,0.00,,,0.00,Wunderground v.1.15,2013-04-23 02:10:00,
2013-04-22 22:15:00,45.8,38.0,30.39,ESE,120,3.0,8.0,74,0.00,,,0.00,Wunderground v.1.15,2013-04-23 02:15:00,
2013-04-22 22:20:00,45.9,37.4,30.39,SSE,160,4.0,8.0,72,0.00,,,0.00,Wunderground v.1.15,2013-04-23 02:20:00,
2013-04-22 22:25:00,45.9,37.0,30.39,ESE,117,5.0,9.0,71,0.00,,,0.00,Wunderground v.1.15,2013-04-23 02:25:00,
2013-04-22 22:30:00,45.9,37.0,30.39,South,169,4.0,11.0,71,0.00,,,0.00,Wunderground v.1.15,2013-04-23 02:30:00,
2013-04-22 22:35:00,45.9,37.0,30.39,SE,134,3.0,10.0,71,0.00,,,0.00,Wunderground v.1.15,2013-04-23 02:35:00,
2013-04-22 22:40:00,45.9,36.7,30.39,SW,214,3.0,4.0,70,0.00,,,0.00,Wunderground v.1.15,2013-04-23 02:40:00,
2013-04-22 22:45:00,45.9,36.3,30.39,SSE,159,3.0,10.0,69,0.00,,,0.00,Wunderground v.1.15,2013-04-23 02:45:00,
2013-04-22 22:51:00,45.9,36.3,30.39,SE,124,5.0,5.0,69,0.00,,,0.00,Wunderground v.1.15,2013-04-23 02:51:00,
2013-04-22 22:56:00,45.9,36.3,30.38,ESE,105,3.0,8.0,69,0.00,,,0.00,Wunderground v.1.15,2013-04-23 02:56:00,
2013-04-22 23:01:00,45.8,36.2,30.39,SSE,165,2.0,4.0,69,0.00,,,0.00,Wunderground v.1.15,2013-04-23 03:01:00,
2013-04-22 23:06:00,45.8,36.2,30.38,SE,136,1.0,4.0,69,0.00,,,0.00,Wunderground v.1.15,2013-04-23 03:06:00,
2013-04-22 23:11:00,45.8,35.8,30.38,NE,41,4.0,6.0,68,0.00,,,0.00,Wunderground v.1.15,2013-04-23 03:11:00,
2013-04-22 23:16:00,45.8,35.8,30.38,East,97,3.0,7.0,68,0.00,,,0.00,Wunderground v.1.15,2013-04-23 03:16:00,
2013-04-22 23:21:00,45.8,35.8,30.38,SSE,158,2.0,7.0,68,0.00,,,0.00,Wunderground v.1.15,2013-04-23 03:21:00,
2013-04-22 23:26:00,45.7,35.7,30.37,SE,134,3.0,7.0,68,0.00,,,0.00,Wunderground v.1.15,2013-04-23 03:26:00,
2013-04-22 23:31:00,45.6,36.0,30.38,SSE,152,3.0,4.0,69,0.00,,,0.00,Wunderground v.1.15,2013-04-23 03:31:00,
2013-04-22 23:36:00,45.6,36.4,30.37,SSE,148,1.0,5.0,70,0.00,,,0.00,Wunderground v.1.15,2013-04-23 03:36:00,
2013-04-22 23:41:00,45.5,35.5,30.38,East,101,1.0,2.0,68,0.00,,,0.00,Wunderground v.1.15,2013-04-23 03:41:00,
2013-04-22 23:46:00,45.5,35.5,30.37,East,90,1.0,5.0,68,0.00,,,0.00,Wunderground v.1.15,2013-04-23 03:46:00,
2013-04-22 23:52:00,45.4,35.5,30.37,SW,225,1.0,5.0,68,0.00,,,0.00,Wunderground v.1.15,2013-04-23 03:52:00,
2013-04-22 23:57:00,45.4,35.5,30.37,ESE,122,1.0,9.0,68,0.00,,,0.00,Wunderground v.1.15,2013-04-23 03:57:00,